星链-4582 (STARLINK-4582 )

导读 | 星芒AI

STARLINK-4582 是 SpaceX Starlink 卫星互联网项目中的一颗低轨卫星,属于“星链”计划的组成部分。该卫星由 SpaceX 研制并发射,旨在为全球用户提供高速互联网服务。它运行在近地轨道,与其他数千颗星链卫星共同构建星座网络,提升网络覆盖与连接稳定性。该计划致力于改善偏远地区的网络接入,同时支持各类商业与民用通信需求。

基本信息
目录编号:
53569
目录名称:
STARLINK-4582
国际标识:
2022-101AU
轨道中心:
EARTH
卫星名称:
星链-4582
卫星全名:
星链-4582 (STARLINK-4582 )
卫星状态:
在轨 (已飞行1220 天)
发射日期:
2022-08-19 UTC
国别 :
美国 (US)
星等 :
--
轨道信息
数据来源 国际轨道数据
星历时间: 2025-12-21T04:33:08+0800
11小时前
查看轨道信息
半长轴: 6917.897km
偏心率: 0.0001294
轨道倾角: 53.218°
近地点辐角 88.239°
升交点赤经 48.045°
平近点角 271.876°
近地点: 538.864km
远地点: 540.656km
周期: 95.438分钟
每日圈数: 15.088347
详细信息
固有亮度:
5
最大亮度:
2.5
卫星平台:
Starlink v1.5
覆盖范围:
全球
运营商:
太空探索技术公司
运营商所在国:
美国
制造商(研发单位):
太空探索技术公司
制造商所在国:
美国
使用方式:
暂无
卫星简介
星链(Starlink)计划是由太空探索技术公司(SpaceX)提出的一个巨型低轨卫星互联网星座项目,计划在2019年至2024年间在太空搭建由约1.2万颗卫星组成的“星链”网络,其中1584颗将部署在地球上空550千米处的近地轨道,并从2020年开始工作。该卫星仍在工作。
2D轨道图
3D轨道图
轨道高度分析图
轨道倾角分析图
轨道综合分析图
查看轨道综合分析图